Location: Torino
(45.0678°N, 7.6825°E)
Time: 14:23:44
(UTC+02:00)

Tiangong - Visible Passes

Search period start: 08 May 2026 00:00
Search period end: 18 May 2026 00:00
Orbit: 374 x 381 km, 41.5° (Epoch: 8 May)

Date Brightness Start Highest point End Pass type
(mag) Time Alt. Az. Time Alt. Az. Time Alt. Az.
8 May -1.2 04:55:07 21° SW 04:56:37 33° SSE 04:59:29 10° ESE visible
9 May -0.2 03:55:54 20° SE 03:55:54 20° SE 03:57:28 10° ESE visible
9 May -1.6 05:28:11 10° WSW 05:31:10 42° S 05:34:10 10° ESE visible
10 May -1.5 04:28:43 34° SSW 04:29:18 38° S 04:32:15 10° ESE visible
11 May 0.3 03:29:28 15° ESE 03:29:28 15° ESE 03:30:13 10° ESE visible
11 May -1.7 05:01:31 15° WSW 05:03:47 41° S 05:06:45 10° ESE visible
12 May -1.5 04:02:17 38° SSE 04:02:17 38° SSE 04:04:48 10° ESE visible
13 May -1.6 04:35:11 28° SW 04:36:13 37° S 04:39:08 10° ESE visible
14 May 0.0 03:36:10 18° ESE 03:36:10 18° ESE 03:37:10 10° ESE visible
14 May -0.9 05:08:13 12° WSW 05:10:30 23° SSW 05:13:03 10° SE visible
15 May -0.9 04:09:23 26° SSE 04:09:23 26° SSE 04:11:18 10° SE visible
16 May -0.5 04:42:57 17° SSW 04:42:57 17° SSW 04:44:45 10° SSE visible
